DB0NLS-15 Weather Reports


time (UTC)temp
F
wind
direction
speed
knots
gust
knots
rain 1hr
in
rain 24hr
in
rain mn
in
humidity
%
barometer
mb
20260507191111 46 34 0.0 1.7 0.00 0.53 0.53 91 1005.1
20260507190108 47 28 0.0 3.5 0.00 0.53 0.53 91 1004.9
20260507185106 47 34 0.0 1.7 0.00 0.53 0.53 91 1004.8
20260507184103 46 15 1.7 3.5 0.00 0.53 0.53 91 1004.6
20260507183100 47 352 1.7 3.5 0.00 0.53 0.53 91 1004.5
20260507182057 47 344 0.9 3.5 0.00 0.53 0.53 91 1004.5
20260507181055 47 341 1.7 3.5 0.00 0.53 0.53 91 1004.3
20260507180052 47 338 1.7 5.2 0.01 0.53 0.53 91 1004.3
20260507175050 47 2 0.9 3.5 0.04 0.53 0.53 91 1004.2
20260507174047 47 20 0.9 3.5 0.06 0.53 0.53 90 1004.2
20260507173044 47 27 0.9 3.5 0.07 0.53 0.53 90 1004.1
20260507172042 47 33 0.0 1.7 0.07 0.53 0.53 90 1004.1
20260507171039 47 31 1.7 3.5 0.07 0.53 0.53 90 1003.9
20260507170036 47 332 0.9 3.5 0.06 0.52 0.52 90 1003.9
20260507165034 47 32 0.9 3.5 0.04 0.50 0.50 89 1003.8
20260507164100 47 36 2.6 6.1 0.02 0.47 0.47 89 1003.7
20260507163058 47 30 3.5 5.2 0.01 0.46 0.46 90 1003.6
20260507162055 47 24 0.9 3.5 0.02 0.46 0.46 90 1003.6
20260507161053 47 34 1.7 3.5 0.02 0.46 0.46 90 1003.6
20260507160050 47 25 2.6 5.2 0.02 0.46 0.46 90 1003.5
20260507155047 47 23 1.7 6.1 0.02 0.46 0.46 90 1003.6
20260507154045 47 10 0.9 3.5 0.01 0.45 0.45 90 1003.5
20260507153042 47 38 1.7 3.5 0.01 0.45 0.45 90 1003.4
20260507152039 47 11 1.7 3.5 0.00 0.44 0.44 90 1003.3
20260507151037 47 11 1.7 3.5 0.00 0.44 0.44 90 1003.4
20260507150034 47 359 1.7 7.0 0.01 0.44 0.44 90 1003.4
20260507145032 47 35 1.7 5.2 0.01 0.44 0.44 90 1003.3
20260507144029 47 348 1.7 5.2 0.01 0.44 0.44 90 1003.2
20260507143026 47 10 0.9 5.2 0.02 0.44 0.44 90 1003.2
20260507142024 47 13 0.9 3.5 0.02 0.44 0.44 89 1003.0
20260507141021 47 25 0.9 3.5 0.02 0.44 0.44 89 1003.1
20260507140019 48 33 1.7 3.5 0.01 0.43 0.43 88 1003.0
20260507135016 48 33 0.9 3.5 0.01 0.43 0.43 88 1002.9
20260507134113 48 27 1.7 3.5 0.01 0.43 0.43 87 1002.8
20260507133111 48 14 0.9 3.5 0.00 0.41 0.41 86 1002.7
20260507132108 49 359 0.9 3.5 0.00 0.41 0.41 86 1002.8
20260507131106 48 41 1.7 3.5 0.00 0.41 0.41 86 1002.6
20260507130103 48 35 0.9 3.5 0.00 0.41 0.41 87 1002.5
20260507125100 48 20 1.7 5.2 0.00 0.41 0.41 87 1002.4
20260507124058 48 23 2.6 7.0 0.00 0.41 0.41 86 1002.2
20260507123055 48 47 1.7 3.5 0.00 0.41 0.41 86 1002.1
20260507122052 48 39 1.7 5.2 0.00 0.41 0.41 87 1002.1
20260507121050 48 19 1.7 5.2 0.00 0.41 0.41 87 1001.9
20260507120047 48 36 0.9 3.5 0.00 0.41 0.41 86 1001.9
20260507115044 48 27 2.6 6.1 0.00 0.41 0.41 87 1001.8
20260507114041 48 18 1.7 3.5 0.00 0.41 0.41 87 1001.7
20260507113039 48 13 1.7 3.5 0.00 0.41 0.41 88 1001.6
20260507112036 48 33 2.6 5.2 0.00 0.41 0.41 88 1001.6
20260507111033 48 49 1.7 5.2 0.00 0.41 0.41 88 1001.5
20260507110031 48 17 1.7 6.1 0.00 0.41 0.41 88 1001.5
20260507105028 48 23 1.7 5.2 0.00 0.41 0.41 88 1001.5
20260507104026 48 49 2.6 6.1 0.01 0.41 0.41 88 1001.3
20260507103023 48 18 1.7 3.5 0.01 0.41 0.41 88 1001.3
20260507102020 47 16 2.6 5.2 0.01 0.41 0.41 88 1001.4
20260507101018 47 31 2.6 7.0 0.01 0.41 0.41 89 1001.3
20260507100015 47 357 1.7 3.5 0.01 0.41 0.41 89 1001.2
20260507095113 47 29 1.7 7.0 0.01 0.41 0.41 89 1001.1
20260507094110 47 11 1.7 5.2 0.00 0.40 0.40 89 1001.0
20260507093107 47 14 1.7 7.0 0.01 0.40 0.40 89 1001.0
20260507092105 47 43 2.6 6.1 0.04 0.40 0.40 89 1000.8
20260507091102 47 40 2.6 5.2 0.05 0.40 0.40 89 1000.7
20260507090059 48 24 2.6 6.1 0.06 0.40 0.40 89 1000.5
20260507085057 48 37 1.7 7.0 0.08 0.40 0.40 90 1000.5
20260507084054 47 28 1.7 5.2 0.09 0.40 0.40 90 1000.3
20260507083052 47 20 1.7 6.1 0.11 0.39 0.39 90 1000.2
20260507082049 47 32 1.7 5.2 0.08 0.37 0.37 91 1000.1
20260507081046 47 14 1.7 6.1 0.08 0.35 0.35 90 1000.0
20260507080044 47 23 1.7 5.2 0.08 0.34 0.34 90 999.8
20260507075041 47 21 0.9 3.5 0.06 0.32 0.32 90 999.8
20260507074038 47 44 2.6 6.1 0.05 0.31 0.31 90 999.7
20260507073036 47 34 2.6 7.0 0.02 0.28 0.28 90 999.7
20260507072033 47 20 2.6 6.1 0.02 0.28 0.28 90 999.6
20260507071031 47 45 1.7 5.2 0.02 0.27 0.27 90 999.6
20260507070028 47 35 1.7 7.0 0.01 0.26 0.26 90 999.5
20260507065025 47 37 1.7 5.2 0.01 0.26 0.26 90 999.4
20260507064022 47 39 1.7 3.5 0.01 0.26 0.26 90 999.3
20260507063019 46 19 1.7 6.1 0.01 0.26 0.26 90 999.1
20260507062017 46 37 1.7 5.2 0.01 0.26 0.26 90 999.0
20260507061114 47 8 1.7 3.5 0.00 0.25 0.25 90 998.8
20260507060111 47 48 2.6 6.1 0.00 0.25 0.25 90 998.7
20260507055109 47 27 1.7 3.5 0.00 0.25 0.25 90 998.5
20260507054106 47 25 1.7 3.5 0.00 0.25 0.25 90 998.5
20260507053104 47 24 1.7 5.2 0.00 0.25 0.25 90 998.4
20260507052101 47 23 1.7 3.5 0.00 0.25 0.25 90 998.4
20260507051058 47 23 1.7 3.5 0.00 0.25 0.25 90 998.4
20260507050056 47 20 0.9 3.5 0.00 0.25 0.25 90 998.3
20260507045053 47 23 0.0 1.7 0.00 0.25 0.25 90 998.3
20260507044051 47 41 0.9 1.7 0.00 0.25 0.25 90 998.3
20260507043048 47 40 0.9 3.5 0.00 0.25 0.25 90 998.1
20260507042045 47 45 0.9 3.5 0.00 0.25 0.25 90 998.0
20260507041043 47 35 0.9 1.7 0.00 0.25 0.25 90 997.9
20260507040040 47 36 0.9 3.5 0.00 0.25 0.25 90 997.7
20260507035038 47 15 0.9 3.5 0.00 0.25 0.25 90 997.7
20260507034035 47 5 0.9 3.5 0.00 0.25 0.25 90 997.6
20260507033032 47 33 0.9 3.5 0.00 0.25 0.25 90 997.5
20260507032030 47 27 0.9 3.5 0.00 0.25 0.25 90 997.5
20260507031027 48 36 0.9 3.5 0.01 0.25 0.25 90 997.4
20260507030024 47 45 1.7 3.5 0.01 0.25 0.25 90 997.3
20260507025022 47 26 0.9 3.5 0.02 0.25 0.25 90 997.2
20260507024019 48 344 0.0 3.5 0.02 0.25 0.25 90 997.1
20260507023016 47 37 0.9 3.5 0.05 0.25 0.25 90 997.0
20260507022114 48 37 1.7 3.5 0.06 0.25 0.25 90 996.9
20260507021111 48 30 1.7 6.1 0.07 0.24 0.24 90 996.7
20260507020109 48 37 1.7 5.2 0.09 0.24 0.24 90 996.5
20260507015106 48 21 2.6 6.1 0.12 0.22 0.22 90 996.4
20260507014103 48 46 2.6 6.1 0.13 0.22 0.22 90 996.5
20260507013101 48 20 2.6 6.1 0.13 0.20 0.20 90 996.5
20260507012058 49 39 2.6 7.0 0.13 0.19 0.19 90 996.5
20260507011055 49 42 2.6 5.2 0.13 0.17 0.17 90 996.5
20260507010053 49 45 3.5 6.1 0.12 0.14 0.14 90 996.4
20260507005050 49 27 1.7 5.2 0.11 0.11 0.11 89 996.5
20260507004047 49 48 1.7 3.5 0.09 0.09 0.09 89 996.6
20260507003045 49 37 2.6 6.1 0.07 0.07 0.07 89 996.6
20260507002042 49 42 1.7 5.2 0.06 0.06 0.06 88 996.6
20260507001039 50 45 0.9 3.5 0.04 0.04 0.04 87 996.6
20260507000037 50 38 0.9 3.5 0.02 0.04 0.02 86 996.6
20260506235033 50 0 0.9 1.7 0.00 0.02 0.00 84 996.9
20260506234030 50 337 1.7 3.5 0.00 0.02 0.00 83 997.0
20260506233028 50 356 2.6 7.0 0.00 0.07 0.00 83 996.8
20260506232025 50 349 1.7 6.1 0.00 0.08 0.00 83 996.5
20260506231023 51 24 1.7 6.1 0.00 0.09 0.00 83 996.4
20260506230020 51 355 0.9 3.5 0.00 0.12 0.00 83 996.4
20260506225017 51 42 1.7 5.2 0.00 0.14 0.00 83 996.2
20260506224015 51 39 0.9 3.5 0.00 0.21 0.00 83 996.2
20260506223112 51 6 0.9 3.5 0.00 0.30 0.00 83 996.4
20260506222110 51 37 2.6 5.2 0.00 0.30 0.00 83 996.1
20260506221107 51 39 1.7 7.0 0.00 0.31 0.00 83 996.1
20260506220104 52 44 3.5 7.8 0.00 0.32 0.00 82 996.2
20260506215102 52 45 2.6 6.1 0.00 0.33 0.33 82 996.1
20260506214059 52 23 1.7 3.5 0.00 0.34 0.33 82 995.9
20260506213057 52 42 1.7 3.5 0.00 0.34 0.33 82 995.8
20260506212054 52 22 3.5 7.0 0.00 0.34 0.33 82 995.7
20260506211051 53 25 1.7 5.2 0.00 0.39 0.33 82 995.7
20260506210049 53 35 1.7 7.0 0.00 0.40 0.33 82 995.8
20260506205046 53 20 2.6 7.0 0.00 0.40 0.33 82 995.6
20260506204043 54 20 2.6 7.0 0.00 0.40 0.33 82 995.4
20260506203041 54 33 2.6 7.0 0.00 0.40 0.33 82 995.5
20260506202038 54 23 2.6 6.1 0.00 0.40 0.33 81 995.6
20260506201036 54 28 1.7 6.1 0.00 0.40 0.33 81 995.6
20260506200033 54 26 3.5 6.1 0.00 0.40 0.33 81 995.5
20260506195030 54 26 3.5 11.3 0.00 0.40 0.33 81 995.4
20260506194028 54 22 0.9 5.2 0.00 0.40 0.33 81 995.1
20260506193025 55 13 1.7 3.5 0.00 0.40 0.33 81 994.7
20260506192022 55 32 0.9 3.5 0.00 0.40 0.33 81 994.7